Station: Hindmarsh Island  

  Atmospheric Gas Attenuation - ITU Rec 676-11   ----------------- dB/100km -----------------
Date Time Temp RH % AH g/m3 Dew Point Wind Direction Speed kph Gust kph Barometer mB Rainfall Since 9am 24GHz 47GHz 76GHz 122GHz 134GHz 241GHz
02/09 00:50 13.8 84 10.01 11.1 22 26 1016.2 0.6 22.6 28.3 45.8 120.3 117.8 406.3
02/09 00:40 13.7 83 9.83 10.9 20 24 1016.2 0.6 22.2 28.1 45.0 118.4 115.4 398.1
02/09 00:30 13.8 83 9.89 11 22 26 1016.2 0.6 22.3 28.1 45.2 118.9 116.1 400.4
02/09 00:20 13.6 84 9.89 11 20 24 1016.3 0.6 22.4 28.2 45.4 119.3 116.4 401.5
02/09 00:10 14 87 10.49 11.9 20 26 1016.3 0.6 23.6 29.1 47.7 125.5 124.2 428.7
02/09 00:00 13.9 87 10.43 11.8 20 26 1016.3 0.6 23.5 29.0 47.5 124.9 123.5 426.3
01/09 23:50 13.9 87 10.43 11.8 19 22 1016.4 0.6 23.5 29.0 47.5 124.9 123.5 426.4
01/09 23:40 14 87 10.49 11.9 20 24 1016.4 0.6 23.6 29.1 47.7 125.5 124.2 428.8
01/09 23:30 13.9 87 10.43 11.8 20 24 1016.4 0.6 23.5 29.0 47.5 124.9 123.5 426.4
01/09 23:20 14.1 88 10.68 12.1 20 26 1016.4 0.6 24.0 29.4 48.4 127.5 126.7 437.6
01/09 23:10 14 88 10.61 12 20 26 1016.4 0.6 23.9 29.3 48.2 126.8 125.9 434.7
01/09 23:00 13.8 88 10.49 11.8 19 24 1016.5 0.6 23.6 29.2 47.8 125.8 124.6 429.9
01/09 22:50 13.9 88 10.55 11.9 17 22 1016.5 0.6 23.8 29.3 48.0 126.3 125.2 432.3
01/09 22:40 14 88 10.61 12 19 24 1016.5 0.6 23.9 29.3 48.2 126.9 125.9 434.7
01/09 22:30 14 89 10.74 12.2 19 22 1016.5 0.6 24.2 29.6 48.8 128.4 127.8 441.2
01/09 22:20 14.3 90 11.06 12.7 17 20 1016.6 0.6 24.8 30.0 50.0 131.6 131.8 455.4
01/09 22:10 14.5 90 11.19 12.9 19 22 1016.6 0.6 25.1 30.2 50.4 132.8 133.4 460.8
01/09 22:00 14.6 90 11.26 13 17 24 1016.7 0.6 25.2 30.3 50.7 133.4 134.2 463.7
01/09 21:50 14.7 90 11.33 13.1 20 28 1016.7 0.6 25.4 30.4 50.9 134.1 135.0 466.6
01/09 21:40 14.8 89 11.27 13 22 28 1016.7 0.6 25.3 30.2 50.6 133.2 134.0 463.0
01/09 21:30 15.2 88 11.42 13.2 20 28 1016.6 0.6 25.5 30.3 51.0 134.2 135.4 468.0
01/09 21:20 15.1 88 11.35 13.1 17 24 1016.5 0.6 25.4 30.2 50.7 133.6 134.6 465.1
01/09 21:10 15 88 11.28 13 19 24 1016.4 0.6 25.3 30.2 50.5 132.9 133.7 462.2
01/09 21:00 15.1 88 11.35 13.1 20 28 1016.2 0.6 25.4 30.2 50.7 133.5 134.5 465.0
01/09 20:50 15.5 85 11.24 13 22 26 1016.1 0.6 25.1 29.9 50.0 131.6 132.3 457.1
01/09 20:40 15.8 85 11.44 13.3 17 20 1015.9 0.6 25.6 30.1 50.6 133.3 134.6 465.2
01/09 20:30 15.7 85 11.37 13.2 13 20 1015.8 0.6 25.4 30.0 50.4 132.7 133.7 462.2
01/09 20:20 15.6 84 11.17 12.9 13 19 1015.7 0.6 25.0 29.7 49.6 130.5 131.1 452.9
01/09 20:10 15.6 84 11.17 12.9 15 20 1015.6 0.6 25.0 29.7 49.6 130.5 131.1 452.9
01/09 20:00 15.6 83 11.04 12.7 17 20 1015.5 0.6 24.7 29.5 49.0 129.0 129.2 446.5
01/09 19:50 15.7 82 10.97 12.6 15 24 1015.4 0.6 24.6 29.3 48.6 128.0 128.1 442.4
01/09 19:40 15.7 82 10.97 12.6 17 26 1015.3 0.6 24.6 29.3 48.6 128.0 128.0 442.4
01/09 19:30 15.8 81 10.9 12.5 22 30 1015.2 0.6 24.4 29.2 48.3 127.1 126.9 438.4
01/09 19:20 16 79 10.76 12.4 24 30 1015.2 0.6 24.1 28.9 47.6 125.2 124.6 430.5
01/09 19:10 16.1 78 10.69 12.3 22 33 1015.3 0.6 23.9 28.7 47.2 124.2 123.5 426.6
01/09 19:00 16.4 76 10.61 12.2 22 35 1015.2 0.6 23.7 28.5 46.7 122.9 121.9 421.1
01/09 18:50 16.4 74 10.33 11.8 17 22 1015.1 0.6 23.1 28.0 45.5 119.7 118.1 407.7
01/09 18:40 16.6 72 10.17 11.5 20 30 1014.9 0.6 22.8 27.7 44.7 117.7 115.6 399.0
01/09 18:30 16.7 72 10.23 11.6 22 30 1014.8 0.6 22.9 27.7 44.9 118.2 116.3 401.3
01/09 18:20 16.8 71 10.15 11.5 24 35 1014.5 0.6 22.7 27.6 44.5 117.1 115.0 397.0
01/09 18:10 17 70 10.13 11.5 24 37 1014.4 0.6 22.7 27.5 44.3 116.6 114.4 395.0
01/09 18:00 17.2 71 10.4 11.9 24 33 1014.2 0.6 23.3 27.8 45.3 119.2 117.7 406.5
01/09 17:50 17.2 72 10.54 12.1 22 28 1014.2 0.6 23.6 28.1 45.9 120.7 119.6 413.1
01/09 17:40 17.3 70 10.31 11.8 20 32 1014.2 0.6 23.1 27.7 44.9 118.1 116.4 401.8
01/09 17:30 17.2 71 10.4 11.9 15 20 1014 0.6 23.3 27.8 45.3 119.2 117.7 406.5
01/09 17:20 17.2 70 10.25 11.7 15 20 1013.8 0.6 22.9 27.6 44.7 117.5 115.7 399.4
01/09 17:10 17.2 70 10.25 11.7 15 24 1013.6 0.6 22.9 27.6 44.7 117.5 115.7 399.3
01/09 17:00 17.1 70 10.19 11.6 20 32 1013.2 0.6 22.8 27.5 44.5 116.9 115.0 396.9
01/09 16:50 17.1 72 10.48 12 24 37 1012.9 0.6 23.4 28.0 45.6 120.1 118.8 410.4
01/09 16:40 16.9 73 10.5 12 33 46 1012.7 0.6 23.5 28.0 45.8 120.6 119.4 412.3
01/09 16:30 16.4 75 10.47 12 30 48 1011.8 0.6 23.5 28.1 45.9 120.9 119.7 413.3
01/09 16:20 15.9 78 10.56 12.1 32 48 1011.7 0.6 23.7 28.4 46.6 122.7 121.7 420.2
01/09 16:10 15.6 81 10.77 12.4 33 48 1011.6 0.6 24.1 28.9 47.7 125.5 125.1 432.0
01/09 16:00 15.5 82 10.84 12.4 41 57 1012.5 0.6 24.3 29.1 48.1 126.6 126.3 436.2
01/09 15:50 15.5 82 10.84 12.4 43 59 1011.9 0.6 24.3 29.0 48.0 126.5 126.2 436.0
01/09 15:40 15.5 82 10.84 12.4 41 63 1011.9 0.6 24.3 29.0 48.0 126.5 126.2 436.0
01/09 15:30 15.8 80 10.77 12.4 32 65 1012.4 0.2 24.1 28.8 47.6 125.3 124.8 431.1
01/09 15:20 15.6 80 10.64 12.2 32 48 1012.9 0.2 23.9 28.7 47.2 124.2 123.4 426.1
01/09 15:10 16.2 75 10.34 11.8 28 44 1013.4 0.2 23.2 28.0 45.6 120.0 118.4 408.7
01/09 15:00 16.9 72 10.36 11.8 26 37 1014.3 0 23.2 27.9 45.3 119.2 117.7 406.2
01/09 14:50 17.5 66 9.84 11.1 32 46 1014.3 0 22.0 26.8 42.9 112.7 109.9 379.1
01/09 14:40 18 62 9.52 10.6 26 43 1014.3 0 21.3 26.2 41.4 108.6 105.0 362.1
01/09 14:30 19.1 56 9.18 10.1 24 43 1014.7 0 20.6 25.3 39.5 103.7 99.3 342.2
01/09 14:20 19.7 53 9 9.9 30 50 1014.7 0 20.2 24.9 38.5 101.1 96.3 331.8
01/09 14:10 20.2 48 8.39 8.8 33 59 1014.3 0 18.8 23.8 36.0 94.4 88.2 303.7
01/09 14:00 20.4 46 8.14 8.4 35 50 1014.5 0 18.3 23.4 35.0 91.8 85.0 292.5
01/09 13:50 20.9 44 8.01 8.2 32 50 1014.4 0 18.0 23.1 34.4 90.0 83.0 285.3
01/09 13:40 21.4 43 8.06 8.3 39 54 1014.2 0 18.1 23.1 34.3 89.9 83.0 285.6
01/09 13:30 21.8 41 7.87 8 37 52 1014.2 0 17.7 22.7 33.5 87.7 80.4 276.5
01/09 13:20 22.1 40 7.81 7.9 39 57 1014.1 0 17.5 22.5 33.1 86.8 79.4 273.0
01/09 13:10 21.9 40 7.72 7.7 39 56 1014.2 0 17.4 22.4 32.9 86.2 78.6 270.1
01/09 13:00 22 39 7.57 7.4 43 56 1014.2 0 17.0 22.2 32.4 84.7 76.8 263.7
01/09 12:50 22 39 7.57 7.4 39 56 1014.2 0 17.0 22.2 32.4 84.7 76.8 263.7
01/09 12:40 22.1 37 7.22 6.7 43 63 1014.2 0 16.3 21.7 31.1 81.3 72.7 249.5
01/09 12:30 21.9 38 7.33 7 37 54 1014.3 0 16.5 21.9 31.6 82.6 74.2 254.5
01/09 12:20 22 38 7.37 7 39 54 1014.3 0 16.6 21.9 31.7 82.8 74.5 255.8
01/09 12:10 21.9 37 7.14 6.6 35 57 1014.4 0 16.1 21.6 30.9 80.8 72.0 247.0
01/09 12:00 22.2 38 7.46 7.2 35 57 1014.8 0 16.8 22.0 31.9 83.5 75.4 258.8
01/09 11:50 22.3 36 7.11 6.5 41 65 1014.9 0 16.1 21.5 30.7 80.2 71.4 244.7
01/09 11:40 22.7 35 7.07 6.5 43 67 1014.9 0 16.0 21.4 30.4 79.5 70.6 242.0
01/09 11:30 22.3 37 7.31 6.9 39 57 1014.9 0 16.5 21.8 31.4 82.0 73.6 252.6
01/09 11:20 22.1 37 7.22 6.7 44 63 1015.3 0 16.3 21.7 31.2 81.4 72.8 249.7
01/09 11:10 21.7 37 7.06 6.4 43 65 1015.2 0 16.0 21.6 30.8 80.4 71.3 244.6
01/09 11:00 21.3 38 7.08 6.4 44 63 1015.3 0 16.0 21.7 31.0 81.0 71.9 246.6
01/09 10:50 21.3 38 7.08 6.4 44 69 1015 0 16.0 21.7 31.0 80.9 71.9 246.6
01/09 10:40 20.5 40 7.12 6.5 44 59 1014.9 0 16.2 22.0 31.4 82.1 73.1 250.6
01/09 10:30 20.5 40 7.12 6.5 43 65 1014.8 0 16.2 22.0 31.4 82.1 73.1 250.5
01/09 10:20 20.4 41 7.25 6.7 43 67 1014.7 0 16.4 22.2 31.9 83.4 74.7 256.1
01/09 10:10 20.2 42 7.34 6.9 44 65 1014.7 0 16.6 22.3 32.3 84.4 75.9 260.3
01/09 10:00 20 43 7.43 7.1 44 61 1014.8 0 16.8 22.5 32.7 85.5 77.1 264.7
01/09 09:50 19.9 44 7.56 7.3 41 63 1015.1 0 17.1 22.7 33.2 86.9 78.8 270.4
01/09 09:40 19.8 44 7.51 7.2 37 59 1015.4 0 17.0 22.7 33.1 86.5 78.3 268.8
01/09 09:30 19.7 45 7.64 7.4 33 54 1015.7 0 17.3 22.9 33.6 87.9 79.9 274.5
01/09 09:20 19.5 46 7.72 7.6 28 41 1016 0 17.5 23.1 34.0 88.9 81.1 278.6
01/09 09:10 18.6 51 8.12 8.3 17 24 1016.2 0 18.3 23.9 35.8 93.8 86.9 298.7
01/09 09:00 18.7 51 8.16 8.4 17 24 1016.4 0 18.4 24.0 35.9 94.1 87.3 300.1
01/09 08:50 18.2 53 8.24 8.5 13 19 1016.8 0 18.6 24.2 36.5 95.6 88.8 305.5
01/09 08:40 17.8 55 8.35 8.6 11 17 1016.8 0 18.9 24.5 37.1 97.1 90.6 311.8
01/09 08:30 17 58 8.39 8.7 13 20 1016.9 0 19.0 24.8 37.6 98.5 92.1 316.7
01/09 08:20 16.5 57 8 8 17 22 1016.8 0 18.2 24.3 36.3 95.2 87.8 301.5

Last Refresh: 02-Sep-2026 01:03:24

Bureau of Meteorology